Regional Weather Roundup
Issued by NWS

Home | Current Version | Previous Version | Graphics & Text | Print | Product List | Glossary Off
Versions: 1 2 3 4 5 6 7 8 9 10 11 12 13 14 15 16 17 18 19 20 21 22 23 24 25 26 27 28 29 30 31 32 33 34 35 36 37 38 39 40 41 42 43 44 45 46 47 48 49 50

000
ASUS43 KTOP 131908
RWRKS

WEATHER ROUNDUP FOR KANSAS
NATIONAL WEATHER SERVICE GOODLAND KS
200 PM CDT SUN JUL 13 2014

NOTE:  "FAIR" INDICATES FEW OR NO CLOUDS BELOW 12,000 FEET WITH NO
SIGNIFICANT WEATHER AND/OR OBSTRUCTIONS TO VISIBILITY.

KSZ001>006-013>018-027>032-041>047-132000-
NORTHWEST KANSAS

CITY           SKY/WX    TMP DP  RH WIND       PRES   REMARKS
GOODLAND       PTSUNNY   84  60  44 E7        30.22F
HAYS           MOSUNNY   84  63  48 N10       30.12F
HILL CITY      SUNNY     90  59  35 N7        30.13F
RUSSELL        PTSUNNY   86  64  47 NE9       30.10S
$$

KSZ061>065-074>080-084>089-132000-
SOUTHWEST KANSAS

CITY           SKY/WX    TMP DP  RH WIND       PRES   REMARKS
DODGE CITY     MOSUNNY   86  59  39 N16G22    30.15F
ELKHART          N/A     86  61  43 S7          N/A
GARDEN CITY    SUNNY     85  58  39 E12       30.18F
GREAT BEND     CLOUDY    82  63  51 NE10      30.10F
LIBERAL        PTSUNNY   86  61  42 NE13      30.18S
PRATT          PTSUNNY   82  68  61 N13       30.12S
$$

KSZ066>073-081>083-090>101-132000-
SOUTHEAST KANSAS

CITY           SKY/WX    TMP DP  RH WIND       PRES   REMARKS
CHANUTE        MOSUNNY   89  67  47 NW7       29.99F
COFFEYVILLE    MOSUNNY   92  67  43 SW10      29.97F HX  95
HUTCHINSON     MOSUNNY   84  69  60 NE9       30.07F
MEDICINE LODGE   N/A     87  70  56 N7        30.06F
NEWTON         PTSUNNY   84  66  54 N14G21    30.08F
PARSONS        SUNNY     90  67  46 VRB5      30.00F
WICHITA INTL   PTSUNNY   87  69  54 N13       30.04S
WICHITA JABRA  MOSUNNY   86  71  60 N12       30.04R
WICHITA MCCONL MOSUNNY   86  72  62 N14       30.04S
WINFIELD       PTSUNNY   88  72  58 N8        30.02F
$$

KSZ007>012-019>026-033>040-048>060-102>105-132000-
NORTHEAST KANSAS

CITY           SKY/WX    TMP DP  RH WIND       PRES   REMARKS
CONCORDIA      MOSUNNY   85  67  54 N10       30.07F
EMPORIA        PTSUNNY   84  69  60 N8        30.02F
LAWRENCE       PTSUNNY   87  72  60 N6        30.01F
MANHATTAN      SUNNY     87  65  47 NE14      30.03F
MARYSVILLE     MOSUNNY   82  70  65 NW7       30.05F
OLATHE IND     MOSUNNY   83  70  64 N8        30.02F
OLATHE EXE     PTSUNNY   85  71  63 VRB3      30.00F
SALINA         PTSUNNY   89  64  43 N13       30.06F
TOPEKA BILLARD MOSUNNY   86  73  65 N7        30.01F
TOPEKA FORBES  PTSUNNY   85  71  63 N7        30.02F
$$



USA.gov is the U.S. government's official web portal to all federal, state and local government web resources and services.